Lid_Strength_Index
5 3 -1 -1 -1 -1 -1 -1 -1 -1 -1 -1 -1 -1 -1 -1 -1 -1 -1 -1 -1 -1 -1 -1 -1 -1 -1 -1 -1 -2 -2 -2 -2 -2 -1 -1 -2 -2 -2 -2 -2 -1 -2
4 2 -1 -0 -0 -0 -0 -1 -1 -1 -1 -1 -1 -1 -1 -1 -1 -1 -1 -1 -1 -1 -1 -1 -1 -1 -1 -2 -2 -2 -2 -2 -2 -1 -1 -2 -2 -2 -2 -2 -2 -1 -2
3 2 2 0 0 0 0 -0 -0 -1 -1 -1 -1 -2 -1 -1 -1 -1 -1 -1 -1 -1 -1 -1 -1 -1 -1 -1 -2 -2 -2 -2 -2 -1 -1 1 0 -2 -2 -2 -2 -2 -2
3 3 2 1 1 1 1 1 1 0 -0 -1 -1 -1 -1 -1 -1 -1 -1 -1 -1 -1 -1 -1 -1 -1 -1 -1 -1 -1 -2 -2 -1 -1 0 1 -0 -2 -2 -2 -2 -2 -2
4 4 2 1 1 1 1 2 2 1 1 1 0 -1 -1 -1 -2 -2 -1 -1 -1 -1 -1 -1 -1 -1 -1 -1 -1 -1 -1 -1 -1 -1 1 1 1 -1 -1 -1 -1 -2 -1
5 4 2 1 2 2 2 2 2 2 2 1 1 1 0 -1 -1 -1 -1 -1 -1 -1 -1 -1 -1 -1 -1 -1 -1 -1 -1 -1 -1 0 1 0 1 -1 -1 -1 -1 -1 -0
6 5 4 2 2 2 2 3 3 3 2 2 2 1 1 0 -0 -1 -1 -1 -1 -1 -1 -1 -1 -1 -1 -1 -1 -1 -1 -1 -0 1 1 0 1 -2 -1 -1 -1 -1 0
7 5 4 2 2 3 3 3 4 3 3 2 2 2 2 1 -0 -1 -1 -1 -1 -1 -1 -1 -1 -1 -1 -1 -1 -1 -1 -1 0 -0 0 1 -1 -2 -1 -1 0 1 -1
6 6 6 6 4 3 3 4 4 4 4 3 3 3 3 2 2 0 -1 -1 -1 -1 -1 -1 -1 -1 -1 -1 -1 -1 -0 0 -0 -0 -0 -0 -1 -1 -1 0 1 -0 -0
7 7 7 7 7 7 7 3 4 4 4 4 4 4 4 4 4 2 1 0 -1 -1 -1 -1 -1 -1 -1 -1 -1 -0 1 1 0 -0 -1 -0 -2 -1 -1 1 1 0 -1
7 7 8 8 8 8 8 6 5 5 5 5 6 5 6 7 6 4 2 1 0 -1 -1 -1 -1 -1 -1 -0 0 1 1 1 1 0 1 -0 -2 -1 -0 1 0 0 -1
8 7 8 8 8 8 7 8 8 8 8 8 8 8 7 7 7 4 4 2 1 0 -1 -1 -1 -1 1 1 1 1 1 1 1 0 0 -1 -1 -0 1 0 0 -0 -1
7 7 7 8 8 9 8 9 9 9 9 9 9 8 8 7 7 6 5 4 3 2 1 -0 0 1 1 1 1 1 1 1 1 0 0 0 -1 0 0 0 -0 -1 -1
8 7 6 8 8 9 9 9 9 9 9 9 9 8 8 8 8 7 6 5 3 2 1 1 0 1 1 0 1 1 0 0 0 1 1 1 -0 0 0 -0 -0 -1 -1
9 8 7 8 9 9 9 10 10 10 10 9 9 8 8 8 8 7 6 5 3 2 0 0 0 1 1 1 1 0 0 0 1 0 1 2 1 -0 -0 -0 -1 -1 -2
8 8 8 8 8 9 10 10 10 9 9 9 9 9 7 7 7 6 6 4 2 1 1 0 0 1 1 1 1 0 -0 0 0 0 0 2 1 -0 -0 -1 -1 -2 -2
8 8 8 8 9 9 10 10 10 9 9 9 9 8 7 6 7 6 6 3 3 2 1 -0 0 0 1 1 1 0 0 0 -0 0 0 1 1 2 1 -0 -1 -2 -2
9 8 8 8 9 10 10 10 10 10 10 9 8 7 7 6 6 6 5 4 2 2 0 0 0 1 1 1 1 1 1 0 0 0 2 2 2 3 2 -0 -1 -2 -1
9 9 10 10 10 10 11 10 10 9 9 9 8 8 7 6 5 6 5 3 2 0 0 0 1 1 1 1 1 1 0 0 1 2 3 4 4 5 3 2 1 -0 -1
10 10 10 11 11 11 11 10 10 10 9 9 8 7 5 4 4 4 3 2 0 0 1 1 1 1 1 1 1 1 1 1 2 3 4 4 6 6 5 4 4 2 0
11 11 11 12 12 12 12 12 11 11 10 9 6 5 4 4 3 3 3 1 0 1 1 1 1 2 2 3 4 5 5 4 4 5 5 6 7 7 7 7 7 6 6
12 12 12 12 12 12 11 11 11 11 10 8 6 4 3 4 4 3 2 1 1 1 1 1 1 2 3 2 4 5 7 7 8 7 7 7 8 8 8 8 8 8 8
13 13 12 12 12 11 11 10 10 10 10 8 7 5 5 4 4 3 1 1 2 2 2 1 2 2 3 3 2 5 7 9 10 8 8 8 8 9 9 9 9 9 9
13 13 13 13 12 11 11 11 11 12 12 9 7 5 5 4 5 2 2 1 3 2 2 1 1 2 3 4 4 4 5 7 10 11 9 9 9 10 10 9 9 10 9
13 14 14 13 12 11 11 11 12 12 11 8 7 6 5 5 4 2 2 2 3 3 2 1 1 2 2 4 5 5 5 7 7 9 12 11 10 10 10 10 10 10 9
14 14 14 14 13 11 11 11 12 12 11 9 8 8 7 5 4 3 3 4 4 4 3 2 1 2 3 3 4 4 5 7 8 9 10 10 12 11 10 10 10 10 10